Regional Weather Roundup
Issued by NWS Upton, NY

Current Version | Previous Version | Graphics & Text | Print | Product List | Glossary Off
Versions: 1 2 3 4 5 6 7 8 9 10 11 12 13 14 15 16 17 18 19 20 21 22 23 24 25 26 27 28 29 30 31 32 33 34 35 36 37 38 39 40 41 42 43 44 45 46 47 48 49 50

000
ASUS41 KOKX 232104
RWROKX

REGIONAL WEATHER ROUNDUP
NATIONAL WEATHER SERVICE NEW YORK NY
500 PM EDT SAT JUL 23 2016

NOTE: "FAIR" INDICATES FEW OR NO CLOUDS BELOW 12,000 FEET WITH NO
SIGNIFICANT WEATHER AND/OR OBSTRUCTIONS TO VISIBILITY.

NYZ071-072-176-178-NJZ106-104-232200-
NEW YORK CITY METRO AREA

CITY           SKY/WX    TMP DP  RH WIND       PRES   REMARKS
Central Park   MOSUNNY   93  59  31 MISG      29.83F HX  92
LaGuardia APRT MOSUNNY   94  54  25 NW23G29   29.78F HX  92
Kennedy INTL   MOSUNNY   97  56  25 W17       29.81F HX  95
Newark/Liberty MOSUNNY   97  57  26 SW18G25   29.80F HX  96
BRNX BOT. GARD   N/A     95  52  23 SW8       29.81R HX  92
Wall St Helipt CLEAR     93  59  31 W14       29.81F HX  92
Teterboro      SUNNY     96  51  21 NW13      29.78F HX  93
$$

NYZ177-179-078>081-232200-
LONG ISLAND NEW YORK

CITY           SKY/WX    TMP DP  RH WIND       PRES   REMARKS
FARMINGDALE    SUNNY     96  54  24 NW9G18    29.80F HX  94
ISLIP          MOSUNNY   96  55  25 W16G22    29.79F HX  94
SHIRLEY        SUNNY     96  55  25 NW12G18   29.79F HX  94
RIVERHEAD      NOT AVBL
WESTHAMPTON    MOSUNNY   95  55  26 W17G26    29.80F HX  93
SOUTHAMPTON      N/A     88  68  51 W6        29.75F HX  91
BRIDGEHAMPTON    N/A     95  66  38 E3        29.78F HX  98
EAST HAMPTON   FAIR      92  60  34 NW10G17   29.78F HX  91
MONTAUK POINT    N/A     90  64  42 SW7       29.79S HX  91
$$

NYZ052-065-067-232200-
HUDSON VALLEY

CITY           SKY/WX    TMP DP  RH WIND       PRES   REMARKS
WHITE PLAINS   MOSUNNY   94  53  25 W14       29.80F HX  91
NEWBURGH       MOSUNNY   93  55  27 W16G26    29.82F HX  91
MONTGOMERY     MOSUNNY   94  54  25 NW16G28   29.80F HX  92
POUGHKEEPSIE   MOSUNNY   96  52  22 W15G25    29.77F HX  93
ALBANY         PTSUNNY   90  57  32 W17G26    29.81R
$$

NJZ001-105-106-008-010-013-015-019>022-104-232200-
NEW JERSEY

CITY           SKY/WX    TMP DP  RH WIND       PRES   REMARKS
NEWARK/LIBERTY MOSUNNY   97  57  26 SW18G25   29.80F HX  96
TETERBORO      SUNNY     96  51  21 NW13      29.78F HX  93
CALDWELL       MOSUNNY   96  56  26 VRB6      29.80F HX  94
MORRISTOWN     MOSUNNY   93  59  31 MISG      29.81F HX  92
SOMERVILLE     SUNNY     96  57  27 NW10      29.79F HX  95
SUSSEX         SUNNY     94  54  25 VRB7G21   29.82F HX  92
ANDOVER          N/A     94  58  29 NW3       29.83F HX  93
TRENTON        SUNNY     95  57  27 N10       29.81F HX  94
MILLVILLE      SUNNY     95  70  44 W13       29.84F HX 101
ATLANTIC CITY  SUNNY     95  70  44 W13       29.83F HX 101
WRIGHTSTOWN    TSTM      91  64  40 W6        29.80F HX  93
TOMS RIVER     MOSUNNY   82  68  61 SW12      29.84F
BELMAR         SUNNY     97  57  26 NW14G23   29.83F HX  96
$$

PAZ047>061-062-071-232200-
EASTERN PENNSYLVANIA

CITY           SKY/WX    TMP DP  RH WIND       PRES   REMARKS
PHILADELPHIA   PTSUNNY   95  69  42 SW15      29.82F HX 100
ALLENTOWN      SUNNY     95  58  28 W10G20    29.83F HX  94
SCRANTON       SUNNY     94  51  23 NW13G24   29.86F HX  91
$$

CTZ002-004>006-009-010-012-RIZ004-006-007-MAZ004-011-015-232200-
SOUTHERN NEW ENGLAND
 IN CT

CITY           SKY/WX    TMP DP  RH WIND       PRES   REMARKS
BRADLEY INTL   MOSUNNY   96  56  26 W13G20    29.75F HX  94
HARTFORD       PTSUNNY   97  60  29 W10G17    29.75F HX  97
DANBURY        SUNNY     92  54  27 W10G23    29.81F HX  90
WTRBRY/OXFORD  MOSUNNY   90  55  31 NW9G17    29.83F
BRIDGEPORT     SUNNY     96  55  25 W13G22    29.77F HX  94
MERIDEN        MOSUNNY   93  58  30 NW9       29.77F HX  92
NEW HAVEN      MOSUNNY   92  59  33 W10G17    29.77F HX  91
CHESTER        FAIR      91  59  33 W9        29.79F HX  90
GROTON         MOSUNNY   90  64  42 SW12      29.76F HX  91
WILLIMANTIC    NOT AVBL

 IN RI

CITY           SKY/WX    TMP DP  RH WIND       PRES   REMARKS
PROVIDENCE     MOSUNNY   93  57  29 W15G22    29.74F HX  91
BLOCK ISLAND   SUNNY     85  66  53 W15       29.78F
WESTERLY       MOSUNNY   87  62  43 SW12G20   29.77F

 IN MA

CITY           SKY/WX    TMP DP  RH WIND       PRES   REMARKS
BOSTON         PTSUNNY   85  64  49 E13       29.70S
WORCESTER      SUNNY     88  53  30 W14G25    29.79S
WESTFIELD      MOSUNNY   94  54  25 W17G23    29.76S HX  92
PROVINCETOWN   PTSUNNY   83  69  62 SE7       29.72F
NANTUCKET      SUNNY     77  67  71 SW14      29.76F
$$

ANZ330-335-338-340-345-350-353-355-232200-
COASTAL MARINE OBSERVATIONS


STATION/POSITION TIME  SKY/WX   TEMP    WIND        PRES    VSBY  WAVE
                                AIR SEA DIR/SP/G                  HT/PER
                 (UTC)          (F)     (DEG/KT/KT) (MB)    (MI)  (FT/S)
NY HARB ENTRANCE 1950            81 76  270/  6/  6 1010.0          2/ 6
20S FIRE ISLAND  1950            79 76  230/  8/  8 1009.8          3/ 6
GREAT SOUTH BAY  2000            82 81  220/ 10/ 16   N/A
23 SSW MONTAUK P 1950            76 72  240/ 12/ 14 1009.6          3/ 8
15 E BARNEGAT LI 2022               77                N/A           2/ 6
HUDSON CANYON    1950            80 78              1010.6          4/ 7
KINGS POINT      2000            87 71              1009.5
EXECUTION ROCKS  2000            89     320/ 14/ 19   N/A
CENTRAL LI SOUND 2000            80 73  230/ 12/ 12   N/A           1/ 3
EASTERN LI SOUND 2000            76 67  230/ 14/ 16   N/A
ROBBINS REEF     2018            91     270/ 15/ 20 1008.8
$$


>>>>>>>>>>>>>>>>>>>>>>>>>>>> KEY <<<<<<<<<<<<<<<<<<<<<<<<<<<
>                                                          <
>     SKY/WX - SKY CONDITION/PRESENT WEATHER               <
>     TMP    - TEMPERATURE IN FAHRENHEIT                   <
>     DP     - DEWPOINT IN FAHRENHEIT                      <
>     RH     - RELATIVE HUMIDITY IN PERCENT                <
>     WIND   - DIRECTION AND SPEED IN MPH                  <
>     PRES   - MEAN SEA LEVEL PRESSURE IN INCHES OF HG     <
>     WCI    - WIND CHILL INDEX                            <
>     VSB    - VISIBILITY IN MILES                         <
>     HX     - HEAT INDEX                                  <
>     TC     - TEMPERATURE IN CELSIUS                      <
>     VRB    - VARIABLE WIND DIRECTION                     <
>                                                          <
>>>>>>>>>>>>>>>>>>>>>>>>>>>> KEY <<<<<<<<<<<<<<<<<<<<<<<<<<<





USA.gov is the U.S. government's official web portal to all federal, state and local government web resources and services.